Hourly Data Report for October 17, 2013

All times are specified in Local Standard Time (LST). Add 1 hour to adjust for Daylight Saving Time where and when it is observed.

CHARLOTTETOWN A
PRINCE EDWARD ISLAND

46°17'21.000" N
63°07'09.000" W
48.50 m
8300301
71706
YYG

Download Data

Hourly Data (October 2013)
Hourly Data Report for October 17, 2013
Temp Definition
°C
Dew Point Temp Definition
°C
Rel Hum Definition
%
Wind Dir Definition
10's deg

Wind Spd Definition
km/h
Visibility Definition
km
Stn Press Definition
kPa
Hmdx Definition


Wind Chill Definition


Weather Definition


TIME
00:00 Legend Double Dagger 11.8 11.3 97 13 20 19.3 101.00     Moderate Rain
01:00 Legend Double Dagger 12.1 11.6 97 14 14 16.1 100.88     Moderate Rain
02:00 Legend Double Dagger 12.3 11.8 97 14 16 24.1 100.76     Rain
03:00 Legend Double Dagger 12.8 12.2 96 13 17 24.1 100.66     LegendNANA
04:00 Legend Double Dagger 12.8 12.2 96 12 17 24.1 100.54     LegendNANA
05:00 Legend Double Dagger 13.0 12.5 97 13 14 24.1 100.47     Cloudy
06:00 Legend Double Dagger 13.9 13.4 97 15 13 19.3 100.41     LegendNANA
07:00 Legend Double Dagger 14.7 14.4 98 16 13 2.4 100.38     Fog
08:00 Legend Double Dagger 15.2 15.1 99 16 12 1.2 100.37     Fog
09:00 Legend Double Dagger 15.9 15.7 99 17 12 0.6 100.34     Drizzle,Fog
10:00 Legend Double Dagger 16.4 16.2 99 19 13 1.2 100.30     Drizzle,Fog
11:00 Legend Double Dagger 17.3 17.0 98 19 14 4.8 100.21     Drizzle,Fog
12:00 Legend Double Dagger 18.0 17.5 97 21 11 6.4 100.16     Fog
13:00 Legend Double Dagger 18.7 17.6 93 20 12 24.1 100.09     LegendNANA
14:00 Legend Double Dagger 19.5 17.5 88 20 10 24.1 100.02     Mostly Cloudy
15:00 Legend Double Dagger 19.8 17.1 84 22 13 24.1 100.01     LegendNANA
16:00 Legend Double Dagger 19.2 14.7 75 23 15 24.1 99.95     LegendNANA
17:00 Legend Double Dagger 17.6 12.6 72 23 11 24.1 99.95     Mostly Cloudy
18:00 Legend Double Dagger 16.3 12.9 80 24 16 24.1 99.97     LegendNANA
19:00 Legend Double Dagger 14.8 12.3 85 25 19 24.1 100.00     LegendNANA
20:00 Legend Double Dagger 13.9 12.6 92 25 15 24.1 100.04     Mostly Cloudy
21:00 Legend Double Dagger 13.7 12.8 94 24 13 24.1 100.04     LegendNANA
22:00 Legend Double Dagger 13.0 12.1 94 26 18 24.1 100.07     LegendNANA
23:00 Legend Double Dagger 12.3 11.5 95 25 14 24.1 100.04     Mainly Clear

Notes on Data Quality.

Legend

  • E = Estimated
  • M = Missing
  • NA = Not Available
  • ‡ = Partner data that is not subject to review by the National Climate Archives
Date modified: